Time,TemperatureF,DewpointF,PressureIn,WindDirection,WindDirectionDegrees,WindSpeedMPH,WindSpeedGustMPH,Humidity,HourlyPrecipIn,Conditions,Clouds,dailyrainin,SoftwareType,DateUTC
2013-10-26 00:00:00,42.0,-99.9,-100.00,WSW,238,6.0,6.0,-999,-99.99,,,-99.99,,2013-10-26 06:00:00,
2013-10-26 00:42:00,42.0,-99.9,-100.00,WSW,238,6.0,6.0,-999,-99.99,,,-99.99,,2013-10-26 06:42:00,
2013-10-26 00:52:00,42.0,-99.9,-100.00,WSW,238,6.0,6.0,-999,-99.99,,,-99.99,,2013-10-26 06:52:00,
2013-10-26 01:00:00,43.0,-99.9,-100.00,SW,230,7.0,9.0,-999,-99.99,,,-99.99,,2013-10-26 07:00:00,
2013-10-26 01:42:00,43.0,-99.9,-100.00,SW,230,7.0,9.0,-999,-99.99,,,-99.99,,2013-10-26 07:42:00,
2013-10-26 01:52:00,43.0,-99.9,-100.00,SW,230,7.0,9.0,-999,-99.99,,,-99.99,,2013-10-26 07:52:00,
2013-10-26 02:00:00,44.0,-99.9,-100.00,SW,223,11.0,14.0,-999,-99.99,,,-99.99,,2013-10-26 08:00:00,
2013-10-26 02:22:00,44.0,-99.9,-100.00,SW,223,11.0,14.0,-999,-99.99,,,-99.99,,2013-10-26 08:22:00,
2013-10-26 02:32:00,44.0,-99.9,-100.00,SW,223,11.0,14.0,-999,-99.99,,,-99.99,,2013-10-26 08:32:00,
2013-10-26 02:42:00,44.0,-99.9,-100.00,SW,223,11.0,14.0,-999,-99.99,,,-99.99,,2013-10-26 08:42:00,
2013-10-26 02:52:00,44.0,-99.9,-100.00,SW,223,11.0,14.0,-999,-99.99,,,-99.99,,2013-10-26 08:52:00,
2013-10-26 03:00:00,43.0,-99.9,-100.00,SW,229,10.0,12.0,-999,-99.99,,,-99.99,,2013-10-26 09:00:00,
2013-10-26 03:43:00,43.0,-99.9,-100.00,SW,229,10.0,12.0,-999,-99.99,,,-99.99,,2013-10-26 09:43:00,
2013-10-26 03:54:00,43.0,-99.9,-100.00,SW,229,10.0,12.0,-999,-99.99,,,-99.99,,2013-10-26 09:54:00,
2013-10-26 04:00:00,42.0,-99.9,-100.00,South,189,7.0,9.0,-999,-99.99,,,-99.99,,2013-10-26 10:00:00,
2013-10-26 04:42:00,42.0,-99.9,-100.00,South,189,7.0,9.0,-999,-99.99,,,-99.99,,2013-10-26 10:42:00,
2013-10-26 04:53:00,42.0,-99.9,-100.00,South,189,7.0,9.0,-999,-99.99,,,-99.99,,2013-10-26 10:53:00,
2013-10-26 05:00:00,37.0,-99.9,-100.00,South,183,5.0,6.0,-999,-99.99,,,-99.99,,2013-10-26 11:00:00,
2013-10-26 05:42:00,37.0,-99.9,-100.00,South,183,5.0,6.0,-999,-99.99,,,-99.99,,2013-10-26 11:42:00,
2013-10-26 05:52:00,37.0,-99.9,-100.00,South,183,5.0,6.0,-999,-99.99,,,-99.99,,2013-10-26 11:52:00,
2013-10-26 06:00:00,36.0,-99.9,-100.00,SSW,212,6.0,7.0,-999,-99.99,,,-99.99,,2013-10-26 12:00:00,
2013-10-26 06:42:00,36.0,-99.9,-100.00,SSW,212,6.0,7.0,-999,-99.99,,,-99.99,,2013-10-26 12:42:00,
2013-10-26 06:52:00,36.0,-99.9,-100.00,SSW,212,6.0,7.0,-999,-99.99,,,-99.99,,2013-10-26 12:52:00,
2013-10-26 07:00:00,36.0,-99.9,-100.00,SSW,192,8.0,9.0,-999,-99.99,,,-99.99,,2013-10-26 13:00:00,
2013-10-26 07:42:00,36.0,-99.9,-100.00,SSW,192,8.0,9.0,-999,-99.99,,,-99.99,,2013-10-26 13:42:00,
2013-10-26 07:52:00,36.0,-99.9,-100.00,SSW,192,8.0,9.0,-999,-99.99,,,-99.99,,2013-10-26 13:52:00,
2013-10-26 08:00:00,44.0,-99.9,-100.00,ESE,112,4.0,5.0,-999,-99.99,,,-99.99,,2013-10-26 14:00:00,
2013-10-26 08:52:00,44.0,-99.9,-100.00,ESE,112,4.0,5.0,-999,-99.99,,,-99.99,,2013-10-26 14:52:00,
2013-10-26 10:00:00,51.0,-99.9,-100.00,NNW,343,3.0,4.0,-999,-99.99,,,-99.99,,2013-10-26 16:00:00,
2013-10-26 10:44:00,51.0,-99.9,-100.00,NNW,343,3.0,4.0,-999,-99.99,,,-99.99,,2013-10-26 16:44:00,
2013-10-26 10:54:00,51.0,-99.9,-100.00,NNW,343,3.0,4.0,-999,-99.99,,,-99.99,,2013-10-26 16:54:00,
2013-10-26 11:00:00,53.0,-99.9,-100.00,NNE,22,2.0,3.0,-999,-99.99,,,-99.99,,2013-10-26 17:00:00,
2013-10-26 11:43:00,53.0,-99.9,-100.00,NNE,22,2.0,3.0,-999,-99.99,,,-99.99,,2013-10-26 17:43:00,
2013-10-26 11:52:00,53.0,-99.9,-100.00,NNE,22,2.0,3.0,-999,-99.99,,,-99.99,,2013-10-26 17:52:00,
2013-10-26 12:00:00,55.0,-99.9,-100.00,NNW,336,4.0,6.0,-999,-99.99,,,-99.99,,2013-10-26 18:00:00,
2013-10-26 12:42:00,55.0,-99.9,-100.00,NNW,336,4.0,6.0,-999,-99.99,,,-99.99,,2013-10-26 18:42:00,
2013-10-26 12:52:00,55.0,-99.9,-100.00,NNW,336,4.0,6.0,-999,-99.99,,,-99.99,,2013-10-26 18:52:00,
2013-10-26 13:00:00,60.0,-99.9,-100.00,NW,317,1.0,3.0,-999,-99.99,,,-99.99,,2013-10-26 19:00:00,
2013-10-26 13:42:00,60.0,-99.9,-100.00,NW,317,1.0,3.0,-999,-99.99,,,-99.99,,2013-10-26 19:42:00,
2013-10-26 13:52:00,60.0,-99.9,-100.00,NW,317,1.0,3.0,-999,-99.99,,,-99.99,,2013-10-26 19:52:00,
2013-10-26 14:00:00,61.0,-99.9,-100.00,North,2,4.0,6.0,-999,-99.99,,,-99.99,,2013-10-26 20:00:00,
2013-10-26 14:43:00,61.0,-99.9,-100.00,North,2,4.0,6.0,-999,-99.99,,,-99.99,,2013-10-26 20:43:00,
2013-10-26 14:52:00,61.0,-99.9,-100.00,North,2,4.0,6.0,-999,-99.99,,,-99.99,,2013-10-26 20:52:00,
2013-10-26 15:00:00,62.0,-99.9,-100.00,NW,318,5.0,7.0,-999,-99.99,,,-99.99,,2013-10-26 21:00:00,
2013-10-26 15:44:00,62.0,-99.9,-100.00,NW,318,5.0,7.0,-999,-99.99,,,-99.99,,2013-10-26 21:44:00,
2013-10-26 15:55:00,62.0,-99.9,-100.00,NW,318,5.0,7.0,-999,-99.99,,,-99.99,,2013-10-26 21:55:00,
2013-10-26 16:00:00,63.0,-99.9,-100.00,NNW,341,4.0,5.0,-999,-99.99,,,-99.99,,2013-10-26 22:00:00,
2013-10-26 16:44:00,63.0,-99.9,-100.00,NNW,341,4.0,5.0,-999,-99.99,,,-99.99,,2013-10-26 22:44:00,
2013-10-26 16:54:00,63.0,-99.9,-100.00,NNW,341,4.0,5.0,-999,-99.99,,,-99.99,,2013-10-26 22:54:00,
2013-10-26 17:00:00,63.0,-99.9,-100.00,WNW,285,5.0,7.0,-999,-99.99,,,-99.99,,2013-10-26 23:00:00,
2013-10-26 17:42:00,63.0,-99.9,-100.00,WNW,285,5.0,7.0,-999,-99.99,,,-99.99,,2013-10-26 23:42:00,
2013-10-26 17:52:00,63.0,-99.9,-100.00,WNW,285,5.0,7.0,-999,-99.99,,,-99.99,,2013-10-26 23:52:00,
2013-10-26 18:00:00,57.0,-99.9,-100.00,SW,219,4.0,5.0,-999,-99.99,,,-99.99,,2013-10-27 00:00:00,
2013-10-26 18:42:00,57.0,-99.9,-100.00,SW,219,4.0,5.0,-999,-99.99,,,-99.99,,2013-10-27 00:42:00,
2013-10-26 18:52:00,57.0,-99.9,-100.00,SW,219,4.0,5.0,-999,-99.99,,,-99.99,,2013-10-27 00:52:00,
2013-10-26 19:00:00,49.0,-99.9,-100.00,SW,215,7.0,8.0,-999,-99.99,,,-99.99,,2013-10-27 01:00:00,
2013-10-26 19:52:00,49.0,-99.9,-100.00,SW,215,7.0,8.0,-999,-99.99,,,-99.99,,2013-10-27 01:52:00,
2013-10-26 21:00:00,-999.0,-99.9,-100.00,West,275,4.0,10.0,-999,-99.99,,,-99.99,,2013-10-27 03:00:00,
2013-10-26 21:55:00,59.0,-99.9,-100.00,West,275,4.0,10.0,-999,-99.99,,,-99.99,,2013-10-27 03:55:00,